Location: Bayou Vista
(29.6905°N, 91.2709°W)
Time: 04:16:48
(UTC+00:00)

Transit 4A - Pass Details

Date: 14 August 2024
Orbit: 867 x 976 km, 66.8° (Epoch: 09 September)

Event Time Altitude Azimuth Distance (km) Brightness Sun altitude
Rises 02:26:41 0° 326° (NW) 3,586 12.1 -20.6°
Reaches altitude 10° 02:29:18 10° 320° (NW) 2,655 11.3 -21.1°
Maximum altitude 02:35:06 43° 251° (WSW) 1,314 8.9 -22.2°
Enters shadow 02:39:42 16° 187° (S) 2,265 9.7 -23.0°
